Weather History for Monarch Pass, CO

Change the Weather History Date:

Tuesday, September 10, 2013

  Actual Average (KGUC) Record (KGUC)
Temperature  
Mean Temperature 42 °F -  
Max Temperature 44 °F 68 °F 77 °F (1996)
Min Temperature 41 °F 36 °F 24 °F (2001)
Degree Days  
Heating Degree Days 22    
Moisture  
Dew Point 42 °F    
Average Humidity 94    
Maximum Humidity 100    
Minimum Humidity 76    
Precipitation  
Precipitation 0.00 in - - ()
Sea Level Pressure  
Sea Level Pressure 30.62 in    
Wind  
Wind Speed 8 mph (East)    
Max Wind Speed 21 mph    
Max Gust Speed 22 mph    
Visibility 1 miles    
Events Fog , Rain , Thunderstorm    
Averages and records for this station are not official NWS values.
T = Trace of Precipitation, MM = Missing Value Source: NWS Daily Summary

Daily Weather History Graph

Daily Weather History Graph

Search for Another Location

Airport:

Trip Planner

Search our weather history database for the weather conditions in past years. The results will help you decide how hot, cold, wet, or windy it might be!

Date:

Astronomy

Sep. 10, 2013 Rise Set
Actual Time 6:42 AM MDT 7:20 PM MDT
Civil Twilight 6:16 AM MDT 7:47 PM MDT
Nautical Twilight 5:44 AM MDT 8:18 PM MDT
Astronomical Twilight 5:11 AM MDT 8:51 PM MDT
Moon 12:06 PM MDT (9/10) 10:30 PM MDT (9/10)
Length of Visible Light 13h 31m
Length of Day
12h 38m
Waxing Crescent, 29% of the Moon is Illuminated
Sep 10
Waxing Crescent
Sep 12
First Quarter
Sep 19
Full
Sep 26
Last Quarter
Oct 4
New

Hourly Weather History & Observations

Time (MDT) Temp. Windchill Dew Point Humidity Pressure Visibility Wind Dir Wind Speed Gust Speed Precip Events Conditions
12:09 AM 44.6 °F 42.2 °F 37.4 °F 76% 30.58 in 10.0 mi SSE 4.6 mph - N/A   Overcast
12:29 AM 44.6 °F 42.2 °F 39.2 °F 81% 30.58 in 10.0 mi South 4.6 mph - N/A   Overcast
12:49 AM 44.6 °F 42.2 °F 41.0 °F 87% 30.57 in 10.0 mi SSW 4.6 mph - N/A   Overcast
1:09 AM 44.6 °F - 39.2 °F 81% 30.57 in 10.0 mi Calm Calm - N/A   Mostly Cloudy
1:29 AM 44.6 °F 43.1 °F 41.0 °F 87% 30.57 in 10.0 mi NNW 3.5 mph - N/A   Light Drizzle
1:49 AM 44.6 °F - 41.0 °F 87% 30.58 in 10.0 mi Calm Calm - N/A   Overcast
2:09 AM 44.6 °F - 41.0 °F 87% 30.58 in 0.2 mi Calm Calm - N/A Rain Light Rain
2:29 AM 44.6 °F 43.1 °F 42.8 °F 93% 30.58 in 1.0 mi East 3.5 mph - N/A   Overcast
2:49 AM 44.6 °F - 42.8 °F 93% 30.58 in 1.2 mi Calm Calm - N/A   Overcast
3:09 AM 44.6 °F 42.2 °F 41.0 °F 87% 30.58 in 10.0 mi SE 4.6 mph - N/A   Overcast
3:29 AM 44.6 °F 41.4 °F 41.0 °F 87% 30.58 in 0.2 mi ESE 5.8 mph - N/A Fog Fog
3:49 AM 44.6 °F 42.2 °F 42.8 °F 93% 30.58 in 0.2 mi East 4.6 mph - N/A Fog Fog
4:09 AM 42.8 °F 39.3 °F 42.8 °F 100% 30.58 in 0.2 mi East 5.8 mph - N/A Fog Fog
4:29 AM 44.6 °F 41.4 °F 42.8 °F 93% 30.58 in 0.2 mi East 5.8 mph - N/A Fog Fog
4:49 AM 42.8 °F 37.5 °F 42.8 °F 100% 30.58 in 0.2 mi East 9.2 mph - N/A Fog Fog
5:09 AM 42.8 °F 37.5 °F 42.8 °F 100% 30.58 in 0.2 mi East 9.2 mph - N/A   Overcast
5:29 AM 42.8 °F 38.6 °F 42.8 °F 100% 30.58 in 0.2 mi ENE 6.9 mph - N/A   Overcast
5:49 AM 42.8 °F 37.5 °F 42.8 °F 100% 30.58 in 0.2 mi East 9.2 mph - N/A   Unknown
6:09 AM 42.8 °F 38.0 °F 42.8 °F 100% 30.58 in 0.2 mi ENE 8.1 mph - N/A   Unknown
6:29 AM 42.8 °F 36.6 °F 41.0 °F 93% 30.58 in 0.2 mi ENE 11.5 mph - N/A   Unknown
6:49 AM 42.8 °F 39.3 °F 41.0 °F 93% 30.60 in 0.2 mi ENE 5.8 mph - N/A Fog Fog
7:09 AM 42.8 °F 38.6 °F 41.0 °F 93% 30.61 in 0.2 mi ENE 6.9 mph - N/A   Unknown
7:29 AM 42.8 °F 37.5 °F 41.0 °F 93% 30.61 in 0.2 mi ENE 9.2 mph - N/A   Unknown
7:49 AM 42.8 °F 36.6 °F 41.0 °F 93% 30.61 in 0.2 mi NE 11.5 mph - N/A Fog Fog
8:09 AM 42.8 °F 35.8 °F 41.0 °F 93% 30.61 in 0.2 mi ENE 13.8 mph - N/A   Overcast
8:29 AM 42.8 °F 36.2 °F 41.0 °F 93% 30.61 in 0.2 mi ENE 12.7 mph - N/A Fog Fog
8:49 AM 42.8 °F 37.0 °F 41.0 °F 93% 30.62 in 0.2 mi ENE 10.4 mph - N/A Fog Fog
9:09 AM 42.8 °F 36.2 °F 42.8 °F 100% 30.62 in 0.2 mi ENE 12.7 mph 18.4 mph N/A Fog Fog
9:29 AM 42.8 °F 35.1 °F 42.8 °F 100% 30.62 in 0.2 mi ENE 16.1 mph - N/A Fog Fog
9:49 AM 42.8 °F 36.2 °F 42.8 °F 100% 30.63 in 0.2 mi ENE 12.7 mph - N/A Fog Fog
10:09 AM 44.6 °F 38.1 °F 42.8 °F 93% 30.63 in 0.2 mi ENE 13.8 mph - N/A Fog Fog
10:29 AM 44.6 °F 37.8 °F 42.8 °F 93% 30.63 in 0.2 mi ENE 15.0 mph - N/A Fog Fog
10:49 AM 44.6 °F 37.4 °F 42.8 °F 93% 30.63 in 0.2 mi ENE 16.1 mph - N/A Fog Fog
11:09 AM 44.6 °F 37.4 °F 42.8 °F 93% 30.64 in 0.2 mi ENE 16.1 mph 19.6 mph N/A Fog Fog
11:29 AM 44.6 °F 37.8 °F 42.8 °F 93% 30.63 in 0.2 mi ENE 15.0 mph - N/A Fog Fog
11:49 AM 44.6 °F 36.4 °F 42.8 °F 93% 30.63 in 0.2 mi ENE 20.7 mph - N/A Fog Fog
12:09 PM 44.6 °F 38.1 °F 42.8 °F 93% 30.63 in 0.2 mi ENE 13.8 mph - N/A Fog Fog
12:29 PM 44.6 °F 37.8 °F 42.8 °F 93% 30.63 in 0.2 mi ENE 15.0 mph - N/A Fog Fog
12:49 PM 44.6 °F 37.2 °F 42.8 °F 93% 30.63 in 0.2 mi ENE 17.3 mph - N/A Fog Fog
1:09 PM 44.6 °F 38.1 °F 42.8 °F 93% 30.63 in 0.2 mi ENE 13.8 mph - N/A Fog Fog
1:29 PM 44.6 °F 37.8 °F 42.8 °F 93% 30.63 in 0.2 mi ENE 15.0 mph - N/A Fog Fog
1:49 PM 44.6 °F 36.9 °F 42.8 °F 93% 30.62 in 0.2 mi ENE 18.4 mph - N/A Fog Fog
2:09 PM 44.6 °F 36.9 °F 42.8 °F 93% 30.62 in 0.2 mi ENE 18.4 mph - N/A Fog Fog
2:29 PM 44.6 °F 36.9 °F 42.8 °F 93% 30.61 in 0.2 mi ENE 18.4 mph - N/A Fog Fog
2:49 PM 44.6 °F 36.6 °F 42.8 °F 93% 30.61 in 0.2 mi ENE 19.6 mph - N/A Fog Fog
3:09 PM 44.6 °F 37.4 °F 42.8 °F 93% 30.62 in 0.2 mi ENE 16.1 mph - N/A Rain Light Rain
3:29 PM 44.6 °F 37.8 °F 42.8 °F 93% 30.62 in 0.2 mi East 15.0 mph - N/A Fog , Thunderstorm Fog
3:49 PM 44.6 °F 38.4 °F 42.8 °F 93% 30.63 in 0.2 mi ENE 12.7 mph - N/A   Unknown
4:09 PM 42.8 °F 40.1 °F 42.8 °F 100% 30.63 in 0.2 mi NE 4.6 mph 9.2 mph N/A Fog Fog
4:29 PM 42.8 °F 41.1 °F 42.8 °F 100% 30.63 in 0.2 mi ENE 3.5 mph - N/A Rain Light Rain
4:49 PM 44.6 °F 40.2 °F 42.8 °F 93% 30.63 in 0.2 mi East 8.1 mph - N/A Fog Fog
5:09 PM 44.6 °F 40.2 °F 42.8 °F 93% 30.63 in 0.2 mi ESE 8.1 mph - N/A Fog Fog
5:29 PM 44.6 °F 39.7 °F 42.8 °F 93% 30.64 in 0.2 mi ENE 9.2 mph - N/A Fog Fog
5:49 PM 44.6 °F 38.8 °F 42.8 °F 93% 30.64 in 0.2 mi ENE 11.5 mph - N/A Rain Light Rain
6:09 PM 44.6 °F 43.1 °F 42.8 °F 93% 30.65 in 0.2 mi ESE 3.5 mph - N/A Rain Light Rain
6:29 PM 42.8 °F 35.4 °F 41.0 °F 93% 30.64 in 1.2 mi South 15.0 mph 20.7 mph N/A Rain Rain
6:49 PM 42.8 °F 34.5 °F 41.0 °F 93% 30.64 in 0.2 mi South 18.4 mph 21.9 mph N/A Fog Fog
7:09 PM 42.8 °F 34.8 °F 41.0 °F 93% 30.64 in 0.2 mi South 17.3 mph - N/A Fog Fog
7:29 PM 42.8 °F 35.8 °F 41.0 °F 93% 30.65 in 0.2 mi South 13.8 mph - N/A Fog Fog
7:49 PM 42.8 °F 37.5 °F 41.0 °F 93% 30.66 in 0.2 mi SSE 9.2 mph - N/A Fog Fog
8:09 PM 41.0 °F 35.8 °F 41.0 °F 100% 30.66 in 7.0 mi SE 8.1 mph - N/A Rain Rain
8:29 PM 42.8 °F 38.0 °F 41.0 °F 93% 30.67 in 0.8 mi ESE 8.1 mph - N/A Rain Light Rain
8:49 PM 41.0 °F 37.1 °F 41.0 °F 100% 30.68 in 5.0 mi ESE 5.8 mph - N/A Rain Light Rain
9:09 PM 42.8 °F 37.0 °F 41.0 °F 93% 30.67 in 1.2 mi East 10.4 mph 16.1 mph N/A Rain Light Rain
9:29 PM 42.8 °F 36.2 °F 41.0 °F 93% 30.67 in 0.2 mi East 12.7 mph - N/A Fog Fog
9:49 PM 42.8 °F 36.2 °F 41.0 °F 93% 30.67 in 0.2 mi ENE 12.7 mph - N/A Rain Light Rain
10:09 PM 42.8 °F 36.2 °F 41.0 °F 93% 30.67 in 0.2 mi ENE 12.7 mph - N/A Rain Light Rain
10:29 PM 41.0 °F 33.5 °F 41.0 °F 100% 30.67 in 0.2 mi ENE 13.8 mph - N/A Rain Light Rain
10:49 PM 41.0 °F 34.7 °F 41.0 °F 100% 30.67 in 0.2 mi East 10.4 mph - N/A   Unknown
11:09 PM 41.0 °F 32.5 °F 41.0 °F 100% 30.66 in 0.2 mi ENE 17.3 mph - N/A   Unknown
11:29 PM 41.0 °F 33.5 °F 41.0 °F 100% 30.66 in 0.2 mi East 13.8 mph - N/A Fog Fog
11:49 PM 41.0 °F 35.2 °F 41.0 °F 100% 30.67 in 0.2 mi East 9.2 mph - N/A Fog Fog